| time (UTC) | temp F | wind direction | speed MPH | gust MPH | rain 1hr in | rain 24hr in | rain mn in | humidity % | barometer mb |
| 20260510161554 | 57 | 206 | 7.0 | 11.0 | 0.00 | 0.42 | 0.00 | 81 | 1013.1 |
| 20260510160051 | 57 | 223 | 5.0 | 11.0 | 0.00 | 0.42 | 0.00 | 82 | 1013.3 |
| 20260510154555 | 56 | 225 | 4.0 | 9.0 | 0.00 | 0.42 | 0.00 | 84 | 1013.3 |
| 20260510153057 | 55 | 261 | 3.0 | 7.0 | 0.00 | 0.42 | 0.00 | 88 | 1013.4 |
| 20260510151547 | 54 | 126 | 1.0 | 8.0 | 0.00 | 0.42 | 0.00 | 90 | 1013.6 |
| 20260510150052 | 53 | 192 | 3.0 | 6.0 | 0.00 | 0.42 | 0.00 | 90 | 1013.7 |
| 20260510144602 | 53 | 164 | 3.0 | 8.0 | 0.00 | 0.42 | 0.00 | 92 | 1013.5 |
| 20260510143050 | 52 | 254 | 1.0 | 8.0 | 0.00 | 0.42 | 0.00 | 94 | 1013.7 |
| 20260510141553 | 51 | 188 | 3.0 | 7.0 | 0.00 | 0.42 | 0.00 | 95 | 1013.8 |
| 20260510140050 | 51 | 188 | 2.0 | 10.0 | 0.00 | 0.42 | 0.00 | 95 | 1013.7 |
| 20260510134551 | 50 | 215 | 5.0 | 9.0 | 0.00 | 0.42 | 0.00 | 95 | 1013.7 |
| 20260510133049 | 49 | 221 | 5.0 | 10.0 | 0.00 | 0.42 | 0.00 | 95 | 1013.6 |
| 20260510131550 | 49 | 155 | 3.0 | 9.0 | 0.00 | 0.42 | 0.00 | 96 | 1013.6 |
| 20260510130051 | 49 | 204 | 4.0 | 8.0 | 0.00 | 0.42 | 0.00 | 96 | 1013.8 |
| 20260510124548 | 49 | 225 | 6.0 | 11.0 | 0.00 | 0.42 | 0.00 | 95 | 1013.8 |
| 20260510123053 | 49 | 238 | 6.0 | 10.0 | 0.00 | 0.42 | 0.00 | 95 | 1013.9 |
| 20260510121547 | 48 | 226 | 4.0 | 9.0 | 0.00 | 0.42 | 0.00 | 95 | 1013.4 |
| 20260510120110 | 48 | 208 | 6.0 | 11.0 | 0.00 | 0.42 | 0.00 | 95 | 1013.4 |
| 20260510114621 | 48 | 229 | 5.0 | 8.0 | 0.00 | 0.42 | 0.00 | 96 | 1013.3 |
| 20260510113100 | 48 | 207 | 2.0 | 8.0 | 0.00 | 0.42 | 0.00 | 95 | 1013.3 |
| 20260510111602 | 48 | 213 | 4.0 | 9.0 | 0.00 | 0.42 | 0.00 | 95 | 1013.3 |
| 20260510110100 | 48 | 196 | 4.0 | 8.0 | 0.00 | 0.42 | 0.00 | 95 | 1012.8 |
| 20260510104554 | 48 | 161 | 3.0 | 7.0 | 0.00 | 0.42 | 0.00 | 95 | 1012.5 |
| 20260510103057 | 47 | 202 | 2.0 | 6.0 | 0.00 | 0.42 | 0.00 | 95 | 1012.3 |
| 20260510101603 | 47 | 109 | 2.0 | 6.0 | 0.00 | 0.42 | 0.00 | 95 | 1011.8 |
| 20260510100105 | 47 | 174 | 2.0 | 5.0 | 0.00 | 0.42 | 0.00 | 95 | 1012.1 |
| 20260510094556 | 47 | 138 | 2.0 | 6.0 | 0.00 | 0.42 | 0.00 | 95 | 1011.9 |
| 20260510093055 | 47 | 159 | 2.0 | 6.0 | 0.00 | 0.42 | 0.00 | 95 | 1012.0 |
| 20260510091551 | 47 | 200 | 2.0 | 5.0 | 0.00 | 0.42 | 0.00 | 95 | 1012.2 |
| 20260510090052 | 47 | 215 | 2.0 | 6.0 | 0.00 | 0.42 | 0.00 | 95 | 1012.2 |
| 20260510084610 | 47 | 138 | 1.0 | 3.0 | 0.00 | 0.42 | 0.00 | 95 | 1012.1 |
| 20260510083055 | 47 | 154 | 1.0 | 5.0 | 0.00 | 0.42 | 0.00 | 95 | 1012.2 |
| 20260510081556 | 47 | 249 | 2.0 | 4.0 | 0.00 | 0.42 | 0.00 | 95 | 1012.6 |
| 20260510074559 | 47 | 173 | 2.0 | 5.0 | 0.00 | 0.42 | 0.00 | 95 | 1012.3 |
| 20260510073058 | 47 | 0 | 0.0 | 4.0 | 0.00 | 0.42 | 0.00 | 95 | 1012.1 |
| 20260510071553 | 47 | 0 | 1.0 | 4.0 | 0.00 | 0.42 | 0.00 | 95 | 1012.3 |
| 20260510070107 | 47 | 123 | 1.0 | 7.0 | 0.00 | 0.42 | 0.00 | 95 | 1012.2 |
| 20260510064556 | 47 | 183 | 2.0 | 8.0 | 0.00 | 0.42 | 0.00 | 95 | 1012.7 |
| 20260510063050 | 47 | 215 | 2.0 | 6.0 | 0.00 | 0.42 | 0.00 | 95 | 1013.0 |
| 20260510061552 | 46 | 188 | 2.0 | 7.0 | 0.00 | 0.42 | 0.00 | 95 | 1013.1 |
| 20260510060050 | 46 | 145 | 1.0 | 6.0 | 0.00 | 0.42 | 0.00 | 95 | 1013.1 |
| 20260510054551 | 46 | 146 | 2.0 | 7.0 | 0.00 | 0.42 | 0.00 | 95 | 1013.2 |
| 20260510053054 | 45 | 115 | 1.0 | 5.0 | 0.00 | 0.42 | 0.00 | 95 | 1013.2 |
| 20260510051602 | 45 | 196 | 1.0 | 6.0 | 0.00 | 0.42 | 0.00 | 94 | 1013.2 |
| 20260510050106 | 44 | 186 | 1.0 | 5.0 | 0.00 | 0.42 | 0.00 | 94 | 1013.1 |
| 20260510044552 | 44 | 165 | 1.0 | 7.0 | 0.00 | 0.42 | 0.00 | 94 | 1013.2 |
| 20260510043050 | 44 | 130 | 0.0 | 3.0 | 0.00 | 0.42 | 0.00 | 94 | 1013.4 |
| 20260510041551 | 44 | 123 | 0.0 | 4.0 | 0.01 | 0.42 | 0.00 | 94 | 1013.5 |
| 20260510040053 | 43 | 0 | 0.0 | 3.0 | 0.01 | 0.42 | 0.00 | 94 | 1013.5 |
| 20260510034552 | 43 | 63 | 0.0 | 1.0 | 0.02 | 0.42 | 0.42 | 94 | 1013.5 |
| 20260510033056 | 43 | 0 | 0.0 | 2.0 | 0.03 | 0.42 | 0.42 | 94 | 1013.7 |
| 20260510031551 | 43 | 53 | 0.0 | 2.0 | 0.04 | 0.41 | 0.41 | 94 | 1013.8 |
| 20260510030054 | 43 | 0 | 0.0 | 2.0 | 0.06 | 0.41 | 0.41 | 94 | 1013.9 |
| 20260510024551 | 43 | 53 | 1.0 | 3.0 | 0.05 | 0.40 | 0.40 | 94 | 1014.1 |
| 20260510023049 | 43 | 17 | 0.0 | 2.0 | 0.04 | 0.39 | 0.39 | 94 | 1014.1 |
| 20260510021638 | 43 | 0 | 0.0 | 3.0 | 0.02 | 0.37 | 0.37 | 94 | 1014.2 |
| 20260510020053 | 43 | 10 | 0.0 | 3.0 | 0.00 | 0.35 | 0.35 | 94 | 1014.2 |
| 20260510014557 | 43 | 360 | 1.0 | 6.0 | 0.00 | 0.35 | 0.35 | 94 | 1014.2 |
| 20260510013058 | 43 | 0 | 0.0 | 7.0 | 0.01 | 0.35 | 0.35 | 94 | 1014.1 |
| 20260510011549 | 42 | 109 | 1.0 | 8.0 | 0.01 | 0.35 | 0.35 | 94 | 1014.0 |
| 20260510010057 | 42 | 155 | 2.0 | 7.0 | 0.02 | 0.35 | 0.35 | 94 | 1014.0 |
| 20260510004555 | 43 | 89 | 2.0 | 6.0 | 0.02 | 0.35 | 0.35 | 93 | 1013.8 |
| 20260510003048 | 43 | 104 | 1.0 | 3.0 | 0.03 | 0.34 | 0.34 | 93 | 1013.9 |
| 20260510001550 | 43 | 98 | 0.0 | 3.0 | 0.03 | 0.34 | 0.34 | 93 | 1014.0 |
| 20260510000048 | 43 | 0 | 1.0 | 5.0 | 0.03 | 0.33 | 0.33 | 93 | 1014.2 |
| 20260509234549 | 43 | 0 | 0.0 | 2.0 | 0.04 | 0.33 | 0.33 | 93 | 1014.2 |
| 20260509233051 | 43 | 69 | 0.0 | 4.0 | 0.03 | 0.31 | 0.31 | 93 | 1014.3 |
| 20260509231553 | 43 | 34 | 1.0 | 7.0 | 0.03 | 0.31 | 0.31 | 93 | 1014.2 |
| 20260509230059 | 43 | 0 | 0.0 | 7.0 | 0.03 | 0.30 | 0.30 | 93 | 1014.2 |
| 20260509224556 | 43 | 0 | 1.0 | 6.0 | 0.05 | 0.29 | 0.29 | 93 | 1014.2 |
| 20260509223053 | 43 | 30 | 0.0 | 8.0 | 0.06 | 0.28 | 0.28 | 93 | 1014.3 |
| 20260509221550 | 43 | 360 | 1.0 | 8.0 | 0.07 | 0.28 | 0.28 | 93 | 1014.3 |
| 20260509220050 | 43 | 110 | 0.0 | 10.0 | 0.06 | 0.26 | 0.26 | 93 | 1014.6 |
| 20260509214549 | 43 | 107 | 1.0 | 8.0 | 0.04 | 0.24 | 0.24 | 93 | 1014.8 |
| 20260509213104 | 43 | 136 | 2.0 | 7.0 | 0.02 | 0.22 | 0.22 | 92 | 1014.6 |
| 20260509211602 | 43 | 53 | 2.0 | 7.0 | 0.02 | 0.21 | 0.21 | 92 | 1014.6 |
| 20260509210053 | 43 | 53 | 2.0 | 6.0 | 0.02 | 0.20 | 0.20 | 92 | 1014.4 |
| 20260509204549 | 43 | 57 | 1.0 | 5.0 | 0.04 | 0.20 | 0.20 | 92 | 1014.6 |
| 20260509203125 | 43 | 0 | 1.0 | 8.0 | 0.06 | 0.20 | 0.20 | 92 | 1014.7 |
| 20260509201603 | 43 | 88 | 1.0 | 9.0 | 0.08 | 0.19 | 0.19 | 92 | 1015.4 |
| 20260509200103 | 43 | 123 | 3.0 | 8.0 | 0.09 | 0.18 | 0.18 | 91 | 1015.5 |
| 20260509194558 | 43 | 109 | 2.0 | 6.0 | 0.08 | 0.16 | 0.16 | 91 | 1015.6 |
| 20260509193057 | 44 | 146 | 1.0 | 8.0 | 0.08 | 0.14 | 0.14 | 91 | 1015.5 |
| 20260509191606 | 44 | 138 | 1.0 | 7.0 | 0.07 | 0.11 | 0.11 | 90 | 1015.6 |
| 20260509190055 | 44 | 142 | 1.0 | 8.0 | 0.07 | 0.09 | 0.09 | 90 | 1015.8 |
| 20260509184604 | 44 | 237 | 3.0 | 9.0 | 0.06 | 0.07 | 0.07 | 89 | 1015.9 |
| 20260509183059 | 45 | 137 | 1.0 | 7.0 | 0.06 | 0.06 | 0.06 | 88 | 1015.9 |
| 20260509181600 | 45 | 209 | 3.0 | 7.0 | 0.04 | 0.04 | 0.04 | 86 | 1015.9 |
| 20260509180107 | 46 | 0 | 0.0 | 3.0 | 0.02 | 0.02 | 0.02 | 85 | 1015.9 |
| 20260509174551 | 46 | 154 | 0.0 | 6.0 | 0.01 | 0.01 | 0.01 | 83 | 1015.9 |
| 20260509173102 | 46 | 150 | 1.0 | 8.0 | 0.00 | 0.00 | 0.00 | 78 | 1015.8 |
| 20260509171547 | 48 | 150 | 4.0 | 14.0 | 0.00 | 0.00 | 0.00 | 69 | 1015.8 |
| 20260509170052 | 48 | 222 | 5.0 | 12.0 | 0.00 | 0.00 | 0.00 | 68 | 1015.7 |
| 20260509164551 | 49 | 211 | 5.0 | 14.0 | 0.00 | 0.00 | 0.00 | 63 | 1015.8 |
| 20260509163052 | 51 | 186 | 9.0 | 22.0 | 0.00 | 0.00 | 0.00 | 55 | 1015.9 |